User: anonymous   Login
Location: Oshawa
(43.9000°N, 78.8670°W)
Time: 03:47:08
(UTC-04:00)
Language:

Cosmos 1408 Rocket - Orbit

View from above orbital plane
View from above orbital plane
View from above satellite
View from above satellite

Ground track
Ground track

The orbit data is extracted from the following two-line orbital elements,

1 13553U 82092B   15185.47373852  .00000200  00000-0  21128-4 0  9997
2 13553 082.5680 178.9426 0020074 241.0921 276.0051 14.83917037771185
Epoch (UTC): 04 July 2015 11:22:11
Eccentricity: 0.0020074
inclination: 82.5680°
perigee height: 603 km
apogee height: 631 km
right ascension of ascending node: 178.9426°
argument of perigee: 241.0921°
revolutions per day: 14.83917037
mean anomaly at epoch: 276.0051°
orbit number at epoch: 77118

The dashed part of the orbit path shows where the satellite is in the earth's shadow,  

DLR